TimeCST,TemperatureF,Dew PointF,Humidity,Sea Level PressureIn,VisibilityMPH,Wind Direction,Wind SpeedMPH,Gust SpeedMPH,PrecipitationIn,Events,Conditions,WindDirDegrees,DateUTC
12:53 AM,46.0,42.1,86,30.00,10.0,NW,5.8,-,0.00,Rain,Light Rain,310,2012-11-07 06:53:00
1:53 AM,48.0,42.1,80,29.99,10.0,NNW,5.8,-,0.00,,Overcast,330,2012-11-07 07:53:00
2:53 AM,48.0,41.0,77,29.99,10.0,NW,3.5,-,N/A,,Overcast,320,2012-11-07 08:53:00
3:53 AM,46.9,41.0,80,29.99,10.0,NW,3.5,-,N/A,,Mostly Cloudy,310,2012-11-07 09:53:00
4:53 AM,44.1,39.9,85,29.99,10.0,West,4.6,-,N/A,,Clear,280,2012-11-07 10:53:00
5:53 AM,42.1,39.9,92,30.00,10.0,Calm,Calm,-,N/A,,Clear,0,2012-11-07 11:53:00
6:53 AM,43.0,39.9,89,30.01,9.0,WNW,3.5,-,N/A,,Clear,290,2012-11-07 12:53:00
7:53 AM,48.0,42.1,80,30.02,10.0,WNW,6.9,-,N/A,,Clear,300,2012-11-07 13:53:00
8:53 AM,52.0,39.9,63,30.02,10.0,NNW,8.1,-,N/A,,Clear,330,2012-11-07 14:53:00
9:53 AM,53.1,39.9,61,30.03,10.0,North,10.4,-,N/A,,Overcast,360,2012-11-07 15:53:00
10:53 AM,55.9,37.9,51,30.02,10.0,North,10.4,-,N/A,,Mostly Cloudy,350,2012-11-07 16:53:00
11:53 AM,54.0,36.0,51,30.01,10.0,NNW,10.4,17.3,N/A,,Overcast,340,2012-11-07 17:53:00
12:53 PM,54.0,34.0,47,30.01,10.0,North,12.7,21.9,N/A,,Overcast,360,2012-11-07 18:53:00
1:53 PM,55.0,34.0,45,30.02,10.0,North,13.8,20.7,N/A,,Overcast,10,2012-11-07 19:53:00
2:53 PM,53.1,33.1,47,30.04,10.0,North,15.0,21.9,N/A,,Overcast,360,2012-11-07 20:53:00
3:53 PM,51.1,35.1,54,30.08,10.0,North,12.7,-,N/A,,Overcast,360,2012-11-07 21:53:00
4:53 PM,48.9,36.0,61,30.09,10.0,Calm,Calm,-,N/A,,Clear,0,2012-11-07 22:53:00
5:53 PM,48.9,37.0,64,30.12,10.0,North,3.5,-,N/A,,Overcast,350,2012-11-07 23:53:00
6:53 PM,45.0,37.0,74,30.13,10.0,North,3.5,-,N/A,,Clear,350,2012-11-08 00:53:00
7:53 PM,43.0,37.0,80,30.15,10.0,North,3.5,-,N/A,,Clear,350,2012-11-08 01:53:00
8:53 PM,44.1,37.0,76,30.17,10.0,NNE,6.9,-,N/A,,Clear,20,2012-11-08 02:53:00
9:53 PM,41.0,36.0,82,30.17,10.0,NNE,5.8,-,N/A,,Clear,20,2012-11-08 03:53:00
10:53 PM,39.0,35.1,86,30.17,10.0,Calm,Calm,-,N/A,,Clear,0,2012-11-08 04:53:00
11:53 PM,37.9,35.1,89,30.18,10.0,Calm,Calm,-,N/A,,Clear,0,2012-11-08 05:53:00